Tracking 31027 objects as of 19-Jul-2025
HD Live streaming from Space Station
objects crossing your sky now

IUS R/B(2)

Track IUS R/B(2) now!


NORAD ID: 25869
Int'l Code: 1999-040D
Perigee: 2,263.3 km
Apogee: 71,070.3 km
Inclination: 30.5 °
Period: 1,480.9 minutes
Semi major axis: 43037 km
RCS: 4.4547 m2 (large)
Launch date: July 23, 1999
Source: United States (US)
Launch site: AIR FORCE EASTERN TEST RANGE (AFETR)

Note: This is a ROCKET BODY
Your satellite tracking list
Your tracking list is empty




NASA's NSSDC Master Catalog

Two Line Element Set (TLE):
1 25869U 99040D   25199.36574407  .00000066  00000-0  00000-0 0  9996
2 25869  30.5171 205.2698 7993781   0.5758 359.9842  0.97236134 92309
Source of the keplerian elements: AFSPC